DW6610 Weather Reports


Display with metric or nautical units.
time (UTC)temp
F
wind
direction
speed
MPH
gust
MPH
rain 1hr
in
rain 24hr
in
rain mn
in
humidity
%
barometer
mb
20260502191052 71 70 2.0 6.0 0.00 0.00 0.00 41 1018.0
20260502190550 70 73 2.0 6.0 0.00 0.00 0.00 46 1018.0
20260502190104 69 107 2.0 5.0 0.00 0.00 0.00 45 1018.2
20260502185550 69 116 1.0 8.0 0.00 0.00 0.00 44 1018.0
20260502185050 69 118 1.0 8.0 0.00 0.00 0.00 45 1018.3
20260502184556 70 115 3.0 8.0 0.00 0.00 0.00 43 1018.2
20260502184050 71 210 2.0 7.0 0.00 0.00 0.00 42 1018.2
20260502183550 70 111 2.0 10.0 0.00 0.00 0.00 48 1018.3
20260502183059 70 153 3.0 10.0 0.00 0.00 0.00 43 1018.4
20260502182550 70 295 2.0 8.0 0.00 0.00 0.00 42 1018.4
20260502182049 71 128 1.0 8.0 0.00 0.00 0.00 41 1018.5
20260502181554 71 87 3.0 9.0 0.00 0.00 0.00 43 1018.5
20260502181050 72 134 2.0 10.0 0.00 0.00 0.00 44 1018.5
20260502180550 71 65 2.0 10.0 0.00 0.00 0.00 45 1018.5
20260502180108 71 115 3.0 10.0 0.00 0.00 0.00 42 1018.6
20260502164053 71 84 2.0 6.0 0.00 0.00 0.00 42 1019.4
20260502163553 71 56 2.0 7.0 0.00 0.00 0.00 43 1019.4
20260502163107 71 93 3.0 7.0 0.00 0.00 0.00 46 1019.4
20260502162552 72 63 1.0 5.0 0.00 0.00 0.00 45 1019.5
20260502162048 71 100 2.0 7.0 0.00 0.00 0.00 45 1019.5
20260502161554 71 151 2.0 7.0 0.00 0.00 0.00 46 1019.6
20260502161051 71 77 1.0 7.0 0.00 0.00 0.00 44 1019.6
20260502160552 70 108 3.0 7.0 0.00 0.00 0.00 44 1019.7
20260502152052 69 0 1.0 6.0 0.00 0.00 0.00 47 1019.6
20260502151613 69 79 2.0 6.0 0.00 0.00 0.00 45 1019.6
20260502151051 69 75 1.0 3.0 0.00 0.00 0.00 46 1019.6
20260502150551 69 89 1.0 2.0 0.00 0.00 0.00 52 1019.6
20260502130551 54 110 0.0 1.0 0.00 0.00 0.00 90 1019.0
20260502130104 53 110 0.0 1.0 0.00 0.00 0.00 89 1019.1
20260502123553 46 0 0.0 1.0 0.00 0.00 0.00 99 1018.9
20260502123102 44 0 0.0 0.0 0.00 0.00 0.00 99 1018.8
20260502122551 44 0 0.0 0.0 0.00 0.00 0.00 99 1018.8
20260502122051 43 0 0.0 0.0 0.00 0.00 0.00 98 1018.7
20260502121559 43 0 0.0 0.0 0.00 0.00 0.00 98 1018.7
20260502121051 43 0 0.0 0.0 0.00 0.00 0.00 98 1018.6
20260502120552 43 0 0.0 0.0 0.00 0.00 0.00 98 1018.5
20260502115556 42 0 0.0 0.0 0.00 0.00 0.00 98 1018.4
20260502115052 42 0 0.0 0.0 0.00 0.00 0.00 98 1018.4
20260502114556 42 0 0.0 0.0 0.00 0.00 0.00 98 1018.4
20260502114052 42 0 0.0 0.0 0.00 0.00 0.00 98 1018.3
20260502113554 42 0 0.0 0.0 0.00 0.00 0.00 98 1018.3
20260502113055 42 0 0.0 0.0 0.00 0.00 0.00 98 1018.3
20260502112551 42 0 0.0 0.0 0.00 0.00 0.00 97 1018.2
20260502112051 42 0 0.0 0.0 0.00 0.00 0.00 97 1018.3
20260502111554 42 0 0.0 0.0 0.00 0.00 0.00 97 1018.2
20260502111054 42 0 0.0 0.0 0.00 0.00 0.00 97 1018.0
20260502110553 42 0 0.0 0.0 0.00 0.00 0.00 97 1018.1
20260502110053 42 0 0.0 0.0 0.00 0.00 0.00 97 1018.2
20260502105553 42 0 0.0 0.0 0.00 0.00 0.00 97 1018.2
20260502105055 42 0 0.0 0.0 0.00 0.00 0.00 97 1017.9
20260502104554 42 0 0.0 0.0 0.00 0.00 0.00 97 1017.9
20260502104052 43 0 0.0 0.0 0.00 0.00 0.00 97 1017.7
20260502103550 42 0 0.0 0.0 0.00 0.00 0.00 97 1017.8
20260502103051 43 0 0.0 0.0 0.00 0.00 0.00 97 1017.6
20260502102549 43 0 0.0 0.0 0.00 0.00 0.00 97 1017.7
20260502102050 42 0 0.0 0.0 0.00 0.00 0.00 96 1017.7
20260502101552 43 0 0.0 0.0 0.00 0.00 0.00 96 1017.7
20260502101053 43 0 0.0 0.0 0.00 0.00 0.00 96 1017.6
20260502100550 43 0 0.0 0.0 0.00 0.00 0.00 96 1017.6
20260502091049 44 0 0.0 0.0 0.00 0.00 0.00 93 1017.5
20260502090549 44 0 0.0 0.0 0.00 0.00 0.00 93 1017.6
20260502071051 49 0 0.0 0.0 0.00 0.00 0.00 80 1017.7
20260502070550 50 0 0.0 0.0 0.00 0.00 0.00 80 1017.7
20260502070059 50 0 0.0 0.0 0.00 0.00 0.00 80 1017.7
20260502065552 50 0 0.0 0.0 0.00 0.00 0.00 80 1017.8
20260502065050 50 0 0.0 0.0 0.00 0.00 0.00 80 1017.8
20260502064552 51 0 0.0 0.0 0.00 0.00 0.00 79 1017.9
20260502064050 51 0 0.0 0.0 0.00 0.00 0.00 79 1018.1
20260502063554 51 0 0.0 0.0 0.00 0.00 0.00 79 1018.1
20260502063052 51 0 0.0 0.0 0.00 0.00 0.00 77 1018.1
20260502062550 51 0 0.0 0.0 0.00 0.00 0.00 76 1018.2
20260502062051 51 0 0.0 0.0 0.00 0.00 0.00 75 1018.2
20260502061553 51 0 0.0 0.0 0.00 0.00 0.00 75 1018.2
20260502061049 51 0 0.0 0.0 0.00 0.00 0.00 74 1018.2
20260502060549 51 0 0.0 0.0 0.00 0.00 0.00 74 1018.2
20260502060100 51 0 0.0 0.0 0.00 0.00 0.00 75 1018.2
20260502055553 52 0 0.0 0.0 0.00 0.00 0.00 73 1018.3
20260502055050 52 0 0.0 0.0 0.00 0.00 0.00 73 1018.3
20260502054557 52 0 0.0 0.0 0.00 0.00 0.00 73 1018.3
20260502054050 52 0 0.0 0.0 0.00 0.00 0.00 73 1018.1
20260502053550 52 0 0.0 0.0 0.00 0.00 0.00 73 1018.2
20260502053053 52 0 0.0 1.0 0.00 0.00 0.00 74 1018.1
20260502052555 52 0 0.0 1.0 0.00 0.00 0.00 74 1018.1
20260502052052 52 0 0.0 0.0 0.00 0.00 0.00 74 1018.1
20260502051551 52 0 0.0 0.0 0.00 0.00 0.00 74 1018.0
20260502051049 51 0 0.0 0.0 0.00 0.00 0.00 75 1018.1
20260502050549 52 0 0.0 0.0 0.00 0.00 0.00 74 1018.1
20260502050054 52 0 0.0 0.0 0.00 0.00 0.00 73 1018.1
20260502045552 52 0 0.0 0.0 0.00 0.00 0.00 72 1018.1
20260502045052 52 0 0.0 0.0 0.00 0.00 0.00 73 1018.2
20260502044555 52 0 0.0 0.0 0.00 0.00 0.00 73 1018.0
20260502044050 52 0 0.0 0.0 0.00 0.00 0.00 72 1017.9
20260502043551 52 0 0.0 0.0 0.00 0.00 0.00 72 1017.9
20260502043056 52 0 0.0 0.0 0.00 0.00 0.00 71 1017.7
20260502042550 52 0 0.0 0.0 0.00 0.00 0.00 72 1017.8
20260502042051 52 0 0.0 0.0 0.00 0.00 0.00 71 1017.7
20260502041553 53 0 0.0 0.0 0.00 0.00 0.00 71 1017.6
20260502041050 53 0 0.0 1.0 0.00 0.00 0.00 70 1017.5
20260502040550 53 0 0.0 1.0 0.00 0.00 0.00 70 1017.4
20260502040054 53 0 0.0 1.0 0.00 0.00 0.00 69 1017.4
20260502035550 54 0 0.0 1.0 0.00 0.00 0.00 69 1017.4
20260502035050 54 0 0.0 1.0 0.00 0.00 0.00 69 1017.4
20260502034552 54 0 0.0 1.0 0.00 0.00 0.00 69 1017.4
20260502034050 54 0 0.0 1.0 0.00 0.00 0.00 68 1017.3
20260502033551 55 0 0.0 1.0 0.00 0.00 0.00 68 1017.4
20260502033052 55 0 0.0 2.0 0.00 0.00 0.00 67 1017.4
20260502032550 55 122 0.0 2.0 0.00 0.00 0.00 68 1017.4
20260502032050 55 0 0.0 1.0 0.00 0.00 0.00 67 1017.4
20260502031553 55 0 0.0 1.0 0.00 0.00 0.00 67 1017.6
20260502031052 55 0 0.0 1.0 0.00 0.00 0.00 67 1017.7
20260502030550 55 0 0.0 1.0 0.00 0.00 0.00 65 1017.8
20260502030054 55 0 0.0 1.0 0.00 0.00 0.00 65 1017.9
20260502025550 55 0 0.0 1.0 0.00 0.00 0.00 63 1018.0
20260502025050 55 120 0.0 1.0 0.00 0.00 0.00 64 1018.0
20260502024557 55 0 0.0 1.0 0.00 0.00 0.00 63 1018.1
20260502024051 55 0 0.0 0.0 0.00 0.00 0.00 63 1018.1
20260502023551 55 0 0.0 0.0 0.00 0.00 0.00 63 1018.3
20260502023053 55 0 0.0 0.0 0.00 0.00 0.00 64 1018.4
20260502022550 55 0 0.0 0.0 0.00 0.00 0.00 64 1018.4
20260502022049 56 0 0.0 0.0 0.00 0.00 0.00 65 1018.4
20260502021607 56 0 0.0 0.0 0.00 0.00 0.00 65 1018.5
20260502021049 56 0 0.0 0.0 0.00 0.00 0.00 64 1018.4
20260502020549 56 0 0.0 1.0 0.00 0.00 0.00 63 1018.2
20260502020051 56 0 0.0 1.0 0.00 0.00 0.00 64 1018.1
20260502015550 57 0 0.0 0.0 0.00 0.00 0.00 64 1018.1
20260502015051 57 0 0.0 1.0 0.00 0.00 0.00 63 1018.2
20260502014600 57 0 0.0 1.0 0.00 0.00 0.00 62 1018.2
20260502014050 57 120 0.0 0.0 0.00 0.00 0.00 62 1018.2
20260502013550 57 0 0.0 1.0 0.00 0.00 0.00 60 1018.1
20260502013101 58 0 0.0 1.0 0.00 0.00 0.00 58 1017.8
20260502012550 58 0 0.0 1.0 0.00 0.00 0.00 57 1017.7
20260502012050 58 0 0.0 1.0 0.00 0.00 0.00 57 1017.4
20260502011556 58 0 0.0 1.0 0.00 0.00 0.00 56 1017.4
20260502011050 58 0 0.0 1.0 0.00 0.00 0.00 56 1017.3
20260502010549 59 0 0.0 1.0 0.00 0.00 0.00 55 1017.2
20260502005550 59 120 0.0 1.0 0.00 0.00 0.00 55 1016.9
20260502005050 60 119 0.0 1.0 0.00 0.00 0.00 55 1017.1
20260502004606 60 0 0.0 2.0 0.00 0.00 0.00 54 1017.1
20260502004053 61 0 0.0 2.0 0.00 0.00 0.00 52 1017.0
20260502003549 61 147 0.0 3.0 0.00 0.00 0.00 49 1017.0
20260502003051 61 146 1.0 3.0 0.00 0.00 0.00 50 1016.9
20260502002550 61 160 0.0 2.0 0.00 0.00 0.00 50 1016.6
20260502002054 62 146 0.0 2.0 0.00 0.00 0.00 49 1016.6
20260502001552 62 112 0.0 2.0 0.00 0.00 0.00 50 1016.6
20260502001054 62 144 0.0 4.0 0.00 0.00 0.00 48 1016.6
20260502000550 62 124 1.0 4.0 0.00 0.00 0.00 47 1016.5
20260502000105 63 151 0.0 4.0 0.00 0.00 0.00 47 1016.5
20260501235550 63 120 0.0 3.0 0.00 0.00 0.00 44 1016.3
20260501235050 64 151 1.0 4.0 0.00 0.00 0.00 46 1016.1
20260501234552 64 121 1.0 4.0 0.00 0.00 0.00 44 1016.2
20260501234050 65 124 2.0 4.0 0.00 0.00 0.00 43 1016.1
20260501233552 66 108 1.0 4.0 0.00 0.00 0.00 45 1016.1
20260501233053 65 125 0.0 7.0 0.00 0.00 0.00 45 1016.2
20260501232555 65 192 1.0 7.0 0.00 0.00 0.00 47 1016.1
20260501232049 64 126 2.0 7.0 0.00 0.00 0.00 46 1015.9
20260501231552 64 120 1.0 6.0 0.00 0.00 0.00 46 1016.0
20260501231051 65 179 1.0 6.0 0.00 0.00 0.00 47 1015.9
20260501230551 65 135 1.0 7.0 0.00 0.00 0.00 44 1015.9
20260501230053 65 107 1.0 7.0 0.00 0.00 0.00 45 1015.8
20260501225550 66 209 2.0 4.0 0.00 0.00 0.00 43 1015.6
20260501225051 67 161 1.0 4.0 0.00 0.00 0.00 41 1015.6
20260501224551 67 215 2.0 7.0 0.00 0.00 0.00 41 1015.4
20260501224052 67 170 2.0 7.0 0.00 0.00 0.00 39 1015.3
20260501223553 68 124 2.0 6.0 0.00 0.00 0.00 38 1015.3
20260501223049 68 165 2.0 7.0 0.00 0.00 0.00 38 1015.4
20260501222552 68 93 2.0 7.0 0.00 0.00 0.00 41 1015.3
20260501222052 68 89 2.0 5.0 0.00 0.00 0.00 41 1015.2
20260501221555 67 101 1.0 8.0 0.00 0.00 0.00 45 1015.3
20260501221052 66 159 2.0 8.0 0.00 0.00 0.00 44 1015.2
20260501220551 66 145 2.0 8.0 0.00 0.00 0.00 43 1015.2
20260501220059 67 143 1.0 8.0 0.00 0.00 0.00 43 1015.7
20260501215552 67 131 3.0 8.0 0.00 0.00 0.00 44 1015.5
20260501215052 69 172 2.0 5.0 0.00 0.00 0.00 43 1015.5
20260501214552 69 87 2.0 5.0 0.00 0.00 0.00 46 1015.3
20260501214051 68 129 1.0 9.0 0.00 0.00 0.00 47 1015.2
20260501213554 67 144 1.0 9.0 0.00 0.00 0.00 45 1015.1
20260501213054 67 189 1.0 4.0 0.00 0.00 0.00 46 1015.1
20260501212551 67 179 1.0 7.0 0.00 0.00 0.00 43 1015.1
20260501212051 67 0 1.0 7.0 0.00 0.00 0.00 45 1015.2
20260501211559 67 136 3.0 7.0 0.00 0.00 0.00 42 1015.3
20260501211051 67 99 2.0 5.0 0.00 0.00 0.00 44 1015.4
20260501210551 67 143 1.0 9.0 0.00 0.00 0.00 45 1015.4
20260501210051 67 121 2.0 11.0 0.00 0.00 0.00 44 1015.4
20260501205552 67 134 3.0 11.0 0.00 0.00 0.00 44 1015.4
20260501205052 67 181 2.0 7.0 0.00 0.00 0.00 47 1015.5
20260501204556 67 153 3.0 7.0 0.00 0.00 0.00 47 1015.7
20260501204051 67 131 2.0 7.0 0.00 0.00 0.00 48 1015.9
20260501203553 67 198 2.0 6.0 0.00 0.00 0.00 50 1016.0
20260501203050 67 112 1.0 7.0 0.00 0.00 0.00 49 1016.0
20260501202554 66 106 2.0 7.0 0.00 0.00 0.00 48 1016.1
20260501202051 66 123 2.0 7.0 0.00 0.00 0.00 51 1016.2
20260501201607 66 99 2.0 4.0 0.00 0.00 0.00 52 1016.3
20260501201051 66 119 1.0 7.0 0.00 0.00 0.00 51 1016.5
20260501200552 66 140 1.0 7.0 0.00 0.00 0.00 51 1016.5
20260501200056 66 96 1.0 5.0 0.00 0.00 0.00 51 1016.6
20260501195552 66 98 2.0 6.0 0.00 0.00 0.00 50 1016.7
20260501195052 66 192 2.0 6.0 0.00 0.00 0.00 49 1017.0
20260501194551 66 273 1.0 5.0 0.00 0.00 0.00 52 1017.0
20260501194051 66 135 1.0 6.0 0.00 0.00 0.00 53 1017.0
20260501193551 66 214 2.0 9.0 0.00 0.00 0.00 50 1017.1
20260501193059 66 166 2.0 9.0 0.00 0.00 0.00 53 1017.0
20260501192551 67 146 3.0 9.0 0.00 0.00 0.00 51 1017.1
20260501192051 67 322 1.0 6.0 0.00 0.00 0.00 54 1017.1
20260501191557 67 138 2.0 6.0 0.00 0.00 0.00 51 1017.3